DW0148 Weather Reports


Display with metric or nautical units.
time (UTC)temp
F
wind
direction
speed
MPH
gust
MPH
rain 1hr
in
rain 24hr
in
rain mn
in
humidity
%
barometer
mb
20201201235945 28 77 1.0 2.0 0.00 0.00 0.00 80 1022.7
20201201235441 29 77 1.0 2.0 0.00 0.00 0.00 79 1022.7
20201201234940 29 77 1.0 2.0 0.00 0.00 0.00 77 1022.7
20201201234439 30 79 0.0 2.0 0.00 0.00 0.00 76 1022.7
20201201233938 30 87 1.0 2.0 0.00 0.00 0.00 75 1022.7
20201201233437 30 204 1.0 3.0 0.00 0.00 0.00 74 1022.4
20201201232934 30 277 0.0 3.0 0.00 0.00 0.00 74 1022.4
20201201232434 30 270 1.0 3.0 0.00 0.00 0.00 74 1022.4
20201201231932 30 270 1.0 3.0 0.00 0.00 0.00 72 1022.4
20201201231431 31 233 0.0 3.0 0.00 0.00 0.00 74 1022.4
20201201230929 31 233 1.0 3.0 0.00 0.00 0.00 73 1022.4
20201201230426 31 318 1.0 6.0 0.00 0.00 0.00 72 1022.0
20201201225925 31 318 0.0 6.0 0.00 0.00 0.00 71 1022.0
20201201225424 32 269 1.0 6.0 0.00 0.00 0.00 71 1022.0
20201201224929 32 259 2.0 6.0 0.00 0.00 0.00 70 1022.0
20201201224409 32 238 2.0 5.0 0.00 0.00 0.00 69 1022.0
20201201223903 32 258 2.0 5.0 0.00 0.00 0.00 71 1021.7
20201201223401 33 224 2.0 5.0 0.00 0.00 0.00 69 1021.7
20201201222901 33 167 2.0 6.0 0.00 0.00 0.00 67 1021.7
20201201222400 33 158 2.0 6.0 0.00 0.00 0.00 68 1021.7
20201201221859 33 221 2.0 6.0 0.00 0.00 0.00 68 1021.7
20201201221348 33 260 2.0 6.0 0.00 0.00 0.00 67 1021.7
20201201220847 33 269 2.0 5.0 0.00 0.00 0.00 66 1021.7
20201201220347 34 307 1.0 5.0 0.00 0.00 0.00 66 1021.3
20201201215847 34 261 2.0 5.0 0.00 0.00 0.00 65 1021.3
20201201215345 34 236 1.0 6.0 0.00 0.00 0.00 64 1021.3
20201201214850 35 189 2.0 6.0 0.00 0.00 0.00 64 1021.3
20201201214322 35 231 1.0 6.0 0.00 0.00 0.00 65 1021.3
20201201213820 35 221 1.0 3.0 0.00 0.00 0.00 64 1021.3
20201201213321 35 205 1.0 3.0 0.00 0.00 0.00 64 1021.3
20201201212817 35 272 2.0 3.0 0.00 0.00 0.00 63 1021.0
20201201212316 36 276 2.0 9.0 0.00 0.00 0.00 61 1021.0
20201201211815 36 263 1.0 9.0 0.00 0.00 0.00 61 1020.7
20201201211314 36 255 2.0 9.0 0.00 0.00 0.00 60 1020.7
20201201210814 36 213 2.0 9.0 0.00 0.00 0.00 60 1020.7
20201201210314 36 153 2.0 8.0 0.00 0.00 0.00 60 1020.7
20201201205812 37 347 1.0 8.0 0.00 0.00 0.00 62 1020.7
20201201205311 37 252 2.0 8.0 0.00 0.01 0.00 61 1020.7
20201201204811 37 171 2.0 5.0 0.00 0.01 0.00 61 1020.7
20201201204258 37 241 2.0 8.0 0.00 0.01 0.00 61 1020.3
20201201203756 37 236 2.0 8.0 0.00 0.01 0.00 59 1020.3
20201201203255 37 212 1.0 8.0 0.00 0.01 0.00 59 1020.3
20201201202753 37 220 3.0 8.0 0.00 0.01 0.00 59 1020.3
20201201202252 37 225 2.0 8.0 0.00 0.01 0.00 61 1020.3
20201201201753 37 192 1.0 8.0 0.00 0.02 0.00 60 1020.3
20201201201250 37 308 2.0 8.0 0.00 0.02 0.00 60 1020.3
20201201200752 37 243 2.0 8.0 0.00 0.02 0.00 60 1020.3
20201201200253 36 88 3.0 8.0 0.00 0.02 0.00 61 1020.7
20201201195752 36 240 3.0 8.0 0.00 0.02 0.00 61 1020.7
20201201195510 36 204 3.0 9.0 0.00 0.02 0.00 62 1020.7
20201201194246 35 165 4.0 9.0 0.00 0.02 0.00 66 1020.7
20201201193745 35 252 2.0 8.0 0.00 0.02 0.00 62 1020.7
20201201193242 35 246 3.0 8.0 0.00 0.02 0.00 63 1020.7
20201201192739 36 189 3.0 8.0 0.00 0.02 0.00 63 1020.7
20201201192238 36 282 3.0 8.0 0.00 0.02 0.00 63 1020.3
20201201191738 36 250 2.0 6.0 0.00 0.02 0.00 65 1020.3
20201201191235 36 283 2.0 6.0 0.00 0.02 0.00 63 1020.3
20201201190734 36 223 3.0 6.0 0.00 0.02 0.00 64 1020.7
20201201190231 36 221 3.0 6.0 0.00 0.02 0.00 63 1020.7
20201201185730 37 268 2.0 8.0 0.00 0.02 0.00 61 1020.7
20201201185237 37 161 2.0 8.0 0.00 0.02 0.00 61 1020.7
20201201184716 38 229 3.0 8.0 0.00 0.02 0.00 59 1020.7
20201201184214 37 196 3.0 8.0 0.00 0.02 0.00 62 1020.7
20201201183649 37 250 2.0 6.0 0.00 0.02 0.00 61 1020.7
20201201183147 37 248 2.0 11.0 0.00 0.02 0.00 62 1020.7
20201201182646 37 252 2.0 12.0 0.00 0.02 0.00 59 1020.7
20201201182150 37 214 2.0 12.0 0.00 0.02 0.00 59 1020.7
20201201181527 38 218 3.0 12.0 0.00 0.02 0.00 58 1020.7
20201201181032 38 211 4.0 9.0 0.00 0.02 0.00 58 1020.7
20201201180528 38 267 2.0 8.0 0.00 0.02 0.00 59 1020.7
20201201175848 37 229 2.0 8.0 0.00 0.02 0.00 63 1020.7
20201201175346 36 198 3.0 8.0 0.00 0.02 0.00 66 1020.7
20201201174845 35 175 3.0 9.0 0.00 0.02 0.00 63 1020.7
20201201174344 35 168 3.0 9.0 0.00 0.02 0.00 64 1020.7
20201201173841 34 227 3.0 9.0 0.00 0.02 0.00 64 1021.0
20201201173202 34 197 2.0 8.0 0.00 0.02 0.00 65 1021.0
20201201172701 34 202 3.0 8.0 0.00 0.02 0.00 67 1021.0
20201201172201 33 178 3.0 8.0 0.00 0.02 0.00 67 1021.0
20201201171703 33 248 2.0 8.0 0.00 0.02 0.00 65 1021.0
20201201171158 34 252 2.0 8.0 0.00 0.02 0.00 67 1021.0
20201201170657 34 253 2.0 6.0 0.00 0.02 0.00 66 1021.0
20201201170156 34 239 3.0 6.0 0.00 0.02 0.00 66 1021.0
20201201165655 35 227 1.0 6.0 0.00 0.02 0.00 63 1021.0
20201201165151 36 268 2.0 8.0 0.00 0.02 0.00 63 1021.0
20201201164651 36 285 2.0 8.0 0.00 0.02 0.00 64 1021.3
20201201164148 36 286 1.0 11.0 0.00 0.02 0.00 64 1021.3
20201201163643 36 229 3.0 11.0 0.00 0.02 0.00 64 1021.3
20201201163149 35 280 3.0 12.0 0.00 0.02 0.00 68 1021.3
20201201162639 35 225 3.0 12.0 0.00 0.02 0.00 67 1021.3
20201201162143 35 213 4.0 12.0 0.00 0.02 0.00 66 1021.3
20201201161639 35 250 3.0 12.0 0.00 0.02 0.00 68 1021.7
20201201161137 35 188 4.0 12.0 0.00 0.02 0.00 68 1021.3
20201201160637 35 277 2.0 8.0 0.00 0.02 0.00 69 1021.3
20201201160027 34 258 2.0 8.0 0.00 0.02 0.00 68 1021.7
20201201155521 33 254 2.0 8.0 0.00 0.02 0.00 72 1021.3
20201201154957 33 196 3.0 9.0 0.00 0.02 0.00 71 1021.3
20201201154457 33 248 2.0 9.0 0.00 0.02 0.00 75 1021.3
20201201153956 32 211 3.0 9.0 0.00 0.02 0.00 74 1021.3
20201201153453 32 168 3.0 9.0 0.00 0.02 0.00 74 1021.3
20201201152951 32 180 2.0 6.0 0.00 0.02 0.00 73 1021.3
20201201152345 32 183 2.0 6.0 0.00 0.02 0.00 72 1021.3
20201201151844 32 248 2.0 11.0 0.00 0.02 0.00 73 1021.0
20201201151216 31 198 2.0 11.0 0.00 0.02 0.00 74 1021.0
20201201150716 32 250 3.0 11.0 0.00 0.02 0.00 74 1021.0
20201201150050 31 188 3.0 6.0 0.00 0.02 0.00 75 1020.7
20201201145414 31 204 2.0 8.0 0.00 0.02 0.00 75 1020.7
20201201144733 31 184 2.0 8.0 0.00 0.02 0.00 75 1020.7
20201201144232 31 230 2.0 9.0 0.00 0.02 0.00 76 1020.7
20201201143731 31 219 2.0 9.0 0.00 0.02 0.00 75 1020.7
20201201143233 31 223 3.0 11.0 0.00 0.02 0.00 75 1020.3
20201201142729 31 205 4.0 11.0 0.00 0.02 0.00 77 1020.3
20201201142229 31 246 3.0 9.0 0.00 0.02 0.00 77 1020.3
20201201141728 31 273 2.0 9.0 0.00 0.02 0.00 76 1020.3
20201201141224 31 268 2.0 9.0 0.00 0.02 0.00 76 1020.0
20201201140721 31 155 1.0 5.0 0.00 0.02 0.00 76 1020.0
20201201140220 31 275 1.0 8.0 0.00 0.02 0.00 77 1020.0
20201201135720 31 101 2.0 8.0 0.00 0.02 0.00 76 1019.6
20201201135222 30 145 2.0 8.0 0.00 0.02 0.00 76 1019.6
20201201134919 30 266 2.0 8.0 0.00 0.02 0.00 76 1019.6
20201201134217 30 287 2.0 6.0 0.00 0.02 0.00 76 1019.6
20201201133717 30 252 1.0 7.0 0.00 0.02 0.00 77 1019.3
20201201133049 30 228 1.0 5.0 0.00 0.02 0.00 77 1019.3
20201201132545 30 244 1.0 6.0 0.00 0.02 0.00 78 1019.3
20201201132037 30 80 2.0 6.0 0.00 0.02 0.00 78 1019.3
20201201131534 30 287 1.0 6.0 0.00 0.02 0.00 77 1019.3
20201201130928 30 303 3.0 6.0 0.00 0.02 0.00 77 1019.3
20201201130251 30 236 1.0 6.0 0.00 0.02 0.00 77 1019.0
20201201125750 30 232 2.0 8.0 0.00 0.02 0.00 76 1019.0
20201201125246 30 220 2.0 8.0 0.00 0.02 0.00 76 1019.0
20201201124748 30 257 2.0 8.0 0.00 0.02 0.00 75 1018.6
20201201124245 30 237 2.0 8.0 0.00 0.02 0.00 75 1018.6
20201201123745 30 63 1.0 8.0 0.00 0.02 0.00 75 1018.6
20201201123243 30 278 2.0 8.0 0.00 0.02 0.00 76 1018.6
20201201122740 30 324 2.0 8.0 0.00 0.02 0.00 75 1018.6
20201201122240 30 263 2.0 8.0 0.00 0.02 0.00 74 1018.6
20201201121741 30 284 1.0 9.0 0.00 0.02 0.00 74 1018.6
20201201121114 30 296 2.0 9.0 0.00 0.02 0.00 74 1018.6
20201201120546 30 279 2.0 8.0 0.00 0.02 0.00 74 1018.3
20201201120052 30 301 2.0 8.0 0.00 0.02 0.00 73 1018.3
20201201115543 30 222 2.0 6.0 0.00 0.02 0.00 75 1018.3
20201201115043 30 213 2.0 6.0 0.00 0.02 0.00 74 1018.3
20201201114405 30 263 2.0 8.0 0.00 0.02 0.00 75 1017.9
20201201113905 30 259 2.0 8.0 0.00 0.02 0.00 74 1017.9
20201201113403 30 253 2.0 9.0 0.00 0.02 0.00 74 1017.9
20201201112906 30 263 2.0 9.0 0.00 0.02 0.00 72 1017.9
20201201112401 30 274 1.0 6.0 0.00 0.02 0.00 74 1017.6
20201201111857 30 273 2.0 6.0 0.00 0.02 0.00 73 1017.6
20201201111250 30 255 1.0 6.0 0.00 0.02 0.00 76 1017.3
20201201110754 30 215 3.0 8.0 0.00 0.02 0.00 74 1017.3
20201201110113 30 247 2.0 8.0 0.00 0.02 0.00 76 1017.3
20201201105613 30 199 3.0 5.0 0.00 0.02 0.00 75 1017.3
20201201105109 30 252 1.0 6.0 0.00 0.02 0.00 75 1017.3
20201201104614 30 280 2.0 6.0 0.00 0.02 0.00 73 1017.3
20201201104113 31 203 2.0 6.0 0.00 0.02 0.00 75 1017.3
20201201103607 31 272 2.0 6.0 0.00 0.02 0.00 75 1017.3
20201201103106 31 259 1.0 8.0 0.00 0.02 0.00 76 1016.9
20201201102540 31 318 1.0 8.0 0.00 0.02 0.00 75 1016.9
20201201102038 31 321 2.0 9.0 0.00 0.03 0.00 75 1016.9
20201201101538 31 284 2.0 9.0 0.00 0.03 0.00 76 1016.9
20201201101037 31 251 2.0 6.0 0.00 0.04 0.00 75 1016.9
20201201100410 31 220 2.0 8.0 0.00 0.06 0.00 77 1016.9
20201201095727 31 217 1.0 8.0 0.00 0.06 0.00 77 1016.9
20201201095218 31 175 1.0 8.0 0.00 0.06 0.00 75 1016.9
20201201094715 31 196 3.0 8.0 0.00 0.06 0.00 77 1016.9
20201201094021 31 230 2.0 8.0 0.00 0.06 0.00 76 1016.6
20201201093514 31 247 2.0 6.0 0.00 0.06 0.00 78 1016.6
20201201093022 31 205 1.0 6.0 0.00 0.06 0.00 77 1016.6
20201201092522 31 270 2.0 6.0 0.00 0.06 0.00 77 1016.6
20201201091842 31 193 1.0 5.0 0.00 0.06 0.00 77 1016.6
20201201091340 31 207 2.0 6.0 0.00 0.06 0.00 77 1016.6
20201201090839 31 238 3.0 9.0 0.00 0.06 0.00 77 1016.3
20201201085818 31 210 2.0 9.0 0.00 0.06 0.00 76 1016.3
20201201085317 31 227 2.0 9.0 0.00 0.06 0.00 78 1016.3
20201201084821 32 219 2.0 9.0 0.00 0.06 0.00 78 1016.3
20201201084318 32 216 4.0 9.0 0.00 0.07 0.00 76 1016.3
20201201083814 32 227 3.0 9.0 0.00 0.07 0.00 76 1016.3
20201201083313 32 223 3.0 9.0 0.00 0.08 0.00 75 1016.3
20201201082812 32 245 2.0 9.0 0.00 0.08 0.00 75 1015.9
20201201082311 32 226 3.0 9.0 0.00 0.08 0.00 75 1015.9
20201201081810 32 251 3.0 9.0 0.00 0.09 0.00 74 1015.9
20201201081309 32 243 2.0 6.0 0.00 0.09 0.00 74 1015.9
20201201080808 32 148 0.0 8.0 0.00 0.10 0.00 74 1015.9
20201201080307 32 250 2.0 11.0 0.00 0.10 0.00 72 1015.9
20201201075624 32 258 2.0 11.0 0.00 0.10 0.00 72 1015.9
20201201075122 32 211 2.0 11.0 0.00 0.10 0.00 72 1015.9
20201201074624 32 227 3.0 9.0 0.00 0.10 0.00 73 1015.6
20201201074123 32 233 4.0 9.0 0.00 0.10 0.00 73 1015.6
20201201073620 33 205 2.0 9.0 0.00 0.10 0.00 73 1015.6
20201201073116 33 240 4.0 9.0 0.00 0.10 0.00 75 1015.6
20201201072616 33 238 3.0 9.0 0.00 0.10 0.00 74 1015.6
20201201072114 33 221 3.0 9.0 0.00 0.10 0.00 75 1015.6
20201201071612 33 270 1.0 9.0 0.00 0.10 0.00 76 1015.2
20201201071109 33 233 3.0 9.0 0.00 0.10 0.00 76 1015.2
20201201070607 33 246 4.0 8.0 0.00 0.11 0.00 76 1015.2
20201201070106 33 184 3.0 12.0 0.00 0.12 0.00 76 1015.2
20201201065606 33 216 2.0 12.0 0.00 0.15 0.00 76 1015.2
20201201065105 33 238 2.0 12.0 0.00 0.17 0.00 77 1015.2
20201201064603 33 263 1.0 12.0 0.00 0.18 0.00 76 1015.2
20201201064103 33 243 2.0 9.0 0.00 0.18 0.00 76 1015.2
20201201063558 33 249 3.0 11.0 0.00 0.19 0.00 76 1015.2
20201201063056 33 231 2.0 11.0 0.00 0.21 0.00 76 1015.2
20201201062554 33 203 3.0 11.0 0.00 0.22 0.00 76 1015.2
20201201062053 33 221 3.0 8.0 0.00 0.24 0.00 75 1015.2
20201201061416 33 251 1.0 6.0 0.00 0.28 0.00 76 1015.2
20201201060634 33 317 2.0 6.0 0.00 0.30 0.00 75 1015.2
20201201060133 33 253 1.0 8.0 0.00 0.31 0.00 77 1015.2
20201201055626 33 272 2.0 8.0 0.00 0.32 0.00 75 1015.2
20201201055125 33 353 2.0 8.0 0.00 0.33 0.00 76 1015.2
20201201054628 33 245 2.0 8.0 0.00 0.36 0.00 75 1015.2
20201201054123 34 36 2.0 6.0 0.00 0.39 0.00 76 1015.2
20201201053623 34 274 1.0 8.0 0.00 0.40 0.00 75 1015.2
20201201053126 34 280 2.0 8.0 0.00 0.40 0.00 74 1015.2
20201201052620 34 216 3.0 8.0 0.00 0.41 0.00 74 1015.2
20201201052119 34 253 2.0 5.0 0.00 0.42 0.00 75 1015.2
20201201051618 34 261 1.0 5.0 0.00 0.43 0.00 76 1015.2
20201201051118 34 257 2.0 6.0 0.00 0.45 0.00 76 1015.2
20201201050533 34 269 2.0 6.0 0.00 0.47 0.00 76 1015.2
20201201050043 34 257 3.0 8.0 0.00 0.48 0.48 76 1015.2
20201201045401 34 332 2.0 8.0 0.00 0.50 0.48 77 1015.2
20201201044851 34 221 3.0 9.0 0.00 0.50 0.48 76 1015.2
20201201044348 34 212 2.0 9.0 0.00 0.51 0.48 76 1015.2
20201201043853 34 260 2.0 9.0 0.00 0.52 0.48 77 1015.2
20201201043344 34 287 2.0 9.0 0.00 0.53 0.48 75 1015.2
20201201042842 34 267 3.0 7.0 0.00 0.53 0.48 75 1014.9
20201201042215 34 293 2.0 6.0 0.00 0.53 0.48 75 1014.9
20201201041517 34 270 2.0 6.0 0.00 0.53 0.48 77 1014.6
20201201040834 34 225 2.0 8.0 0.00 0.53 0.48 76 1014.6
20201201040332 34 250 1.0 9.0 0.00 0.53 0.48 77 1014.6
20201201035831 34 265 3.0 9.0 0.00 0.53 0.48 76 1014.6
20201201035329 34 248 2.0 9.0 0.00 0.53 0.48 76 1014.6
20201201034829 34 292 2.0 9.0 0.00 0.53 0.48 77 1014.6
20201201034158 34 256 1.0 9.0 0.00 0.53 0.48 77 1014.6
20201201033657 34 219 4.0 9.0 0.00 0.53 0.48 77 1014.6
20201201033154 34 270 3.0 15.0 0.00 0.53 0.48 76 1014.2
20201201032653 34 241 2.0 17.0 0.00 0.53 0.48 79 1014.2
20201201032153 34 271 3.0 17.0 0.00 0.53 0.48 77 1014.2
20201201031648 34 308 4.0 17.0 0.00 0.53 0.48 78 1014.2
20201201031149 34 273 2.0 15.0 0.00 0.53 0.48 80 1014.2
20201201030513 34 276 2.0 15.0 0.00 0.53 0.48 80 1013.9
20201201030022 34 213 3.0 14.0 0.00 0.53 0.48 80 1013.9
20201201025459 34 313 2.0 14.0 0.00 0.53 0.48 79 1013.9
20201201024957 34 244 3.0 14.0 0.00 0.54 0.48 80 1013.9
20201201024457 35 254 2.0 14.0 0.00 0.54 0.48 80 1013.9
20201201023957 35 246 3.0 6.0 0.00 0.54 0.48 81 1013.5
20201201023452 35 249 2.0 6.0 0.00 0.54 0.48 82 1013.5
20201201022951 35 251 2.0 6.0 0.00 0.54 0.48 81 1013.5
20201201022314 35 256 1.0 6.0 0.00 0.54 0.48 82 1013.5
20201201021816 35 239 2.0 9.0 0.00 0.54 0.48 81 1013.5
20201201021312 34 221 3.0 9.0 0.00 0.54 0.48 82 1013.5
20201201020811 34 285 2.0 11.0 0.00 0.54 0.48 82 1013.5
20201201020311 34 210 4.0 11.0 0.00 0.55 0.48 83 1013.2
20201201015238 34 223 3.0 11.0 0.00 0.56 0.48 82 1013.2
20201201014737 34 213 3.0 5.0 0.00 0.57 0.48 83 1013.2
20201201014236 34 230 1.0 8.0 0.00 0.57 0.48 84 1013.2
20201201013734 34 137 1.0 8.0 0.00 0.58 0.48 84 1013.2
20201201013234 34 281 2.0 8.0 0.00 0.59 0.48 84 1012.9
20201201012602 34 263 2.0 6.0 0.00 0.61 0.48 85 1012.9
20201201012102 34 255 2.0 8.0 0.00 0.62 0.48 85 1012.9
20201201011553 34 293 2.0 8.0 0.00 0.63 0.48 85 1012.9
20201201011053 34 222 2.0 8.0 0.00 0.64 0.48 85 1012.9
20201201010558 34 254 1.0 8.0 0.00 0.64 0.48 85 1012.9
20201201010101 34 250 3.0 8.0 0.00 0.65 0.48 85 1012.5
20201201005554 34 229 3.0 9.0 0.00 0.65 0.48 85 1012.5
20201201005047 34 230 1.0 9.0 0.00 0.66 0.48 85 1012.5
20201201004551 34 266 1.0 6.0 0.00 0.66 0.48 86 1012.5
20201201004045 34 226 2.0 8.0 0.00 0.66 0.48 86 1012.5
20201201003546 34 237 2.0 8.0 0.00 0.67 0.48 85 1012.5
20201201003057 34 229 2.0 8.0 0.00 0.67 0.48 85 1012.2
20201201002544 34 216 2.0 8.0 0.00 0.67 0.48 86 1012.2
20201201002042 34 248 1.0 8.0 0.00 0.68 0.48 86 1012.2
20201201001400 34 247 3.0 8.0 0.00 0.68 0.48 85 1012.2
20201201000836 34 233 2.0 8.0 0.00 0.68 0.48 86 1012.2
20201201000235 34 229 1.0 6.0 0.00 0.68 0.48 86 1012.2